This is the latest recevied weather packets stored in our database for station/object VE2JJ-13. If no packets are shown the sender has not sent any weather packets the latest 1 day(s).
| Time | Temp. | Humidity | Pressure | Rain* | Wind** | Luminosity | Snow |
|---|---|---|---|---|---|---|---|
| 1778073510 | 7.22° C | 91% | 1003 hPa | 1.52 mm | - | - | - |
| 1778073211 | 7.22° C | 91% | 1002.9 hPa | 1.27 mm | - | - | - |
| 1778072253 | 7.22° C | 91% | 1003.1 hPa | 1.52 mm | - | - | - |
| 1778070690 | 7.22° C | 91% | 1002.9 hPa | 1.52 mm | - | - | - |
| 1778067512 | 7.78° C | 91% | 1003.4 hPa | 0.76 mm | - | - | - |
| 1778067212 | 7.78° C | 91% | 1003.4 hPa | 1.02 mm | - | - | - |
| 1778065322 | 7.78° C | 89% | 1002.7 hPa | 0.51 mm | - | - | - |
| 1778064034 | 8.33° C | 88% | 1002.7 hPa | 0.25 mm | - | - | - |
| 1778062746 | 8.33° C | 85% | 1002.6 hPa | 0 mm | - | - | - |
| 1778062080 | 8.89° C | 82% | 1002.5 hPa | 0 mm | - | - | - |
| 1778061121 | 8.89° C | 79% | 1002.5 hPa | 0 mm | - | - | - |
| 1778060791 | 8.89° C | 78% | 1002.5 hPa | 0 mm | - | - | - |
| 1778059829 | 9.44° C | 76% | 1002.1 hPa | 0 mm | - | - | - |
| 1778058573 | 9.44° C | 76% | 1001.8 hPa | 0 mm | - | - | - |
| 1778058240 | 9.44° C | 76% | 1001.9 hPa | 0 mm | - | - | - |
| 1778057639 | 9.44° C | 76% | 1001.9 hPa | 0 mm | - | - | - |
| 1778056680 | 9.44° C | 76% | 1002.3 hPa | 0 mm | - | - | - |
| 1778056349 | 9.44° C | 76% | 1002.3 hPa | 0 mm | - | - | - |
| 1778056049 | 9.44° C | 76% | 1002 hPa | 0 mm | - | - | - |
| 1778055720 | 9.44° C | 77% | 1002 hPa | 0 mm | - | - | - |
| 1778054762 | 9.44° C | 77% | 1001.7 hPa | 0 mm | - | - | - |
| 1778054460 | 9.44° C | 77% | 1002.1 hPa | 0 mm | - | - | - |
| 1778053499 | 9.44° C | 77% | 1002.4 hPa | 0 mm | - | - | - |
| 1778052903 | 10° C | 77% | 1002.1 hPa | 0 mm | - | - | - |
| 1778051642 | 10° C | 77% | 1001.9 hPa | 0 mm | - | - | - |
* Rain latest hour (hover to see other rain measurements)
** Current wind speed in m/s (hover to see current wind gust speed)